Location: Unspecified
(0.0000°N, 0.0000°E)
Time: 18:18:10
(UTC+02:00)

PROBA 2 - Visible Passes

Search period start: 05 September 2015 00:00
Search period end: 15 September 2015 00:00
Orbit: 707 x 725 km, 98.3° (Epoch: 04 September)

Date Brightness Start Highest point End Pass type
(mag) Time Alt. Az. Time Alt. Az. Time Alt. Az.
05 Sep ? 07:23:25 10° ESE 07:26:10 16° E 07:29:10 10° NE visible
05 Sep ? 21:25:08 10° NW 21:27:35 13° W 21:29:42 10° WSW visible
06 Sep ? 20:31:52 10° N 20:36:35 63° WNW 20:41:19 10° SSW visible
07 Sep ? 07:19:54 10° ESE 07:22:12 14° E 07:24:50 10° NE visible
07 Sep ? 21:20:45 10° NW 21:23:37 15° W 21:26:12 10° WSW visible
08 Sep ? 20:27:53 10° N 20:32:38 71° WNW 20:37:24 10° SSW visible
09 Sep ? 07:16:31 10° E 07:18:14 12° E 07:20:21 10° NE visible
09 Sep ? 21:16:27 10° NW 21:19:39 17° W 21:22:37 10° WSW visible
10 Sep ? 20:23:55 10° N 20:28:41 81° W 20:33:28 10° SSW visible
11 Sep ? 07:13:25 10° E 07:14:17 11° E 07:15:34 10° ENE visible
11 Sep ? 21:12:13 10° NNW 21:15:40 19° W 21:18:58 10° WSW visible
12 Sep ? 20:19:57 10° NNE 20:24:44 90° ESE 20:29:32 10° SSW visible
13 Sep ? 21:08:01 10° NNW 21:11:43 22° W 21:15:16 10° SW visible
14 Sep ? 20:16:01 10° NNE 20:20:47 80° ESE 20:25:35 10° S visible
